TimeCET,TemperatureF,Dew PointF,Humidity,Sea Level PressureIn,VisibilityMPH,Wind Direction,Wind SpeedMPH,Gust SpeedMPH,PrecipitationIn,Events,Conditions,WindDirDegrees,DateUTC
12:55 AM,37.4,35.6,93,30.27,4.3,NE,5.8,-,N/A,,Unknown,40,2013-12-18 23:55:00
1:00 AM,38,36,91,30.29,4,NE,5.8,,,,Mist,40,2013-12-19 00:00:00
1:55 AM,37.4,35.6,93,30.27,4.3,ENE,3.5,-,N/A,,Unknown,60,2013-12-19 00:55:00
2:55 AM,37.4,35.6,93,30.27,4.3,NE,3.5,-,N/A,,Unknown,40,2013-12-19 01:55:00
3:55 AM,37.4,35.6,93,30.24,4.3,NNE,6.9,-,N/A,,Unknown,20,2013-12-19 02:55:00
4:00 AM,38,36,91,30.26,4,NNE,6.9,,,,Mist,20,2013-12-19 03:00:00
4:55 AM,37.4,35.6,93,30.24,4.3,NNE,5.8,-,N/A,,Unknown,30,2013-12-19 03:55:00
5:55 AM,37.4,35.6,93,30.24,4.3,NNE,8.1,-,N/A,,Unknown,30,2013-12-19 04:55:00
6:55 AM,39.2,37.4,93,30.24,4.3,NE,8.1,-,N/A,,Partly Cloudy,40,2013-12-19 05:55:00
7:00 AM,39,37,92,30.25,4,NE,8.1,,,,Scattered Clouds,40,2013-12-19 06:00:00
7:55 AM,39.2,37.4,93,30.24,4.3,NE,9.2,-,N/A,,Partly Cloudy,40,2013-12-19 06:55:00
8:55 AM,44.6,41.0,87,30.24,5.0,NE,8.1,-,N/A,,Scattered Clouds,40,2013-12-19 07:55:00
9:55 AM,48.2,44.6,87,30.24,5.0,NE,5.8,-,N/A,,Scattered Clouds,50,2013-12-19 08:55:00
10:00 AM,49,44,78,30.25,5,NE,5.8,,,,Mist,50,2013-12-19 09:00:00
10:55 AM,55.4,48.2,77,30.24,6.2,ESE,6.9,-,N/A,,Scattered Clouds,110,2013-12-19 09:55:00
11:55 AM,57.2,44.6,63,30.24,6.2,ESE,9.2,-,N/A,,Partly Cloudy,120,2013-12-19 10:55:00
12:55 PM,57.2,44.6,63,30.24,6.2,SE,8.1,-,N/A,,Partly Cloudy,140,2013-12-19 11:55:00
1:00 PM,57,44,52,30.25,7,SE,8.1,,,,Scattered Clouds,140,2013-12-19 12:00:00
1:55 PM,59.0,37.4,45,30.18,6.2,SSE,11.5,-,N/A,,Partly Cloudy,150,2013-12-19 12:55:00
2:55 PM,57.2,39.2,51,30.18,6.2,SE,6.9,-,N/A,,Mostly Cloudy,130,2013-12-19 13:55:00
3:55 PM,55.4,42.8,63,30.18,6.2,ESE,8.1,-,N/A,,Mostly Cloudy,110,2013-12-19 14:55:00
4:00 PM,56,43,51,30.19,9,ESE,8.1,,,,Mostly Cloudy,110,2013-12-19 15:00:00
4:55 PM,53.6,44.6,72,30.15,6.2,ESE,8.1,-,N/A,,Mostly Cloudy,110,2013-12-19 15:55:00
5:55 PM,53.6,46.4,77,30.15,6.2,East,10.4,-,N/A,,Mostly Cloudy,100,2013-12-19 16:55:00
6:55 PM,51.8,46.4,82,30.15,6.2,East,10.4,-,N/A,,Scattered Clouds,100,2013-12-19 17:55:00
7:00 PM,53,47,72,30.17,9,East,10.4,,,,Mostly Cloudy,100,2013-12-19 18:00:00
7:55 PM,51.8,46.4,82,30.15,6.2,East,11.5,-,N/A,,Scattered Clouds,100,2013-12-19 18:55:00
8:55 PM,53.6,44.6,72,30.15,6.2,ESE,12.7,-,N/A,,Mostly Cloudy,110,2013-12-19 19:55:00
9:55 PM,53.6,44.6,72,30.15,6.2,ESE,13.8,-,N/A,,Scattered Clouds,110,2013-12-19 20:55:00
10:00 PM,53,44,64,30.17,9,ESE,13.8,,,,Mostly Cloudy,110,2013-12-19 21:00:00
10:55 PM,53.6,44.6,72,30.15,6.2,ESE,12.7,-,N/A,,Mostly Cloudy,110,2013-12-19 21:55:00
11:55 PM,53.6,46.4,77,30.15,6.2,ESE,13.8,-,N/A,,Mostly Cloudy,110,2013-12-19 22:55:00